Location: Glenbow
(51.1592°N, 114.3828°W)
Time: 20:37:48
(UTC+00:00)

Envisat - Pass Details

Date: 30 November 2021
Orbit: 764 x 766 km, 98.2° (Epoch: 26 January)

Event Time Altitude Azimuth Distance (km) Brightness Sun altitude
Rises 00:57:21 0° 207° (SSW) 3,222 7.0 -12.4°
Reaches altitude 10° 01:00:16 10° 225° (SW) 2,302 6.5 -12.8°
Maximum altitude 01:03:54 20° 271° (W) 1,739 5.8 -13.4°
Drops below altitude 10° 01:07:34 10° 317° (NW) 2,315 5.8 -13.9°
Sets 01:10:31 0° 335° (NNW) 3,247 6.4 -14.3°
